Tracking 18186 objects as of 29-March-2017
HD Live streaming from Space Station
objects crossing your sky now

SSU 3

Track SSU 3 now!
10-day predictions
SSU 3 is classified as:


NORAD ID: 8884
Int'l Code: 1976-038J
Perigee: 439.6 km
Apogee: 1,506.6 km
Inclination: 63.3 °
Period: 104.4 minutes
Semi major axis: 7344 km
RCS: Unknown
Launch date: April 30, 1976
Source: United States (US)
Launch site: AIR FORCE WESTERN TEST RANGE (AFWTR)
Your satellite tracking list
Your tracking list is empty





NASA's NSSDC Master Catalog

Two Line Element Set (TLE):
1 08884U 76038J   17049.12365081 0.00000450  00000-0  52690-4 0    07
2 08884  63.2920 287.5395 0726457 131.7120 228.2880 13.79407462    00
Source of the keplerian elements: McCants